This is the latest recevied weather packets stored in our database for station/object SR9WXGR. If no packets are shown the sender has not sent any weather packets the latest 10 day(s).
| Time | Temp. | Humidity | Pressure | Rain* | Wind** | Luminosity | Snow |
|---|---|---|---|---|---|---|---|
| 1777930501 | 18.89° C | 22% | 975 hPa | - | - | - | - |
| 1777926901 | 20° C | 22% | 974 hPa | - | - | - | - |
| 1777923300 | 20.56° C | 21% | 974 hPa | - | - | - | - |
| 1777919701 | 22.78° C | 21% | 974 hPa | - | - | - | - |
| 1777916101 | 25.56° C | 18% | 973 hPa | - | - | - | - |
| 1777912501 | 30.56° C | 14% | 973 hPa | - | - | - | - |
| 1777908900 | 31.67° C | 13% | 973 hPa | - | - | - | - |
| 1777905300 | 30.56° C | 15% | 974 hPa | - | - | - | - |
| 1777901701 | 27.78° C | 18% | 974 hPa | - | - | - | - |
| 1777898100 | 25° C | 20% | 975 hPa | - | - | - | - |
| 1777894502 | 22.78° C | 24% | 975 hPa | - | - | - | - |
| 1777890900 | 21.67° C | 23% | 976 hPa | - | - | - | - |
| 1777887301 | 20° C | 25% | 977 hPa | - | - | - | - |
| 1777883700 | 17.78° C | 27% | 977 hPa | - | - | - | - |
| 1777880100 | 16.67° C | 29% | 977 hPa | - | - | - | - |
| 1777876500 | 15.56° C | 32% | 977 hPa | - | - | - | - |
| 1777872900 | 13.89° C | 35% | 977 hPa | - | - | - | - |
| 1777869302 | 11.67° C | 37% | 977 hPa | - | - | - | - |
| 1777865701 | 10.56° C | 39% | 977 hPa | - | - | - | - |
| 1777862102 | 11.67° C | 38% | 977 hPa | - | - | - | - |
| 1777854901 | 12.78° C | 36% | 977 hPa | - | - | - | - |
| 1777851301 | 15° C | 32% | 977 hPa | - | - | - | - |
| 1777847701 | 15.56° C | 30% | 977 hPa | - | - | - | - |
| 1777844101 | 16.67° C | 28% | 977 hPa | - | - | - | - |
| 1777840501 | 17.78° C | 27% | 977 hPa | - | - | - | - |
* Rain since midnight (hover to see other rain measurements)
** Current wind speed in m/s (hover to see current wind gust speed)